FW1310 Weather Reports


time (UTC)temp
F
wind
direction
speed
knots
gust
knots
rain 1hr
in
rain 24hr
in
rain mn
in
humidity
%
barometer
mb
20260906234504 90 212 2.6 7.0 0.00 0.00 0.00 58 995.2
20260906234003 91 239 4.3 7.0 0.00 0.00 0.00 56 995.2
20260906233503 91 257 3.5 5.2 0.00 0.00 0.00 56 995.1
20260906233004 91 189 2.6 6.1 0.00 0.00 0.00 56 995.2
20260906232504 91 151 3.5 7.0 0.00 0.00 0.00 56 995.1
20260906232003 91 195 4.3 7.8 0.00 0.00 0.00 57 995.2
20260906231504 91 255 3.5 7.8 0.00 0.00 0.00 56 995.3
20260906231003 91 174 4.3 10.4 0.00 0.00 0.00 56 995.6
20260906230504 92 250 2.6 7.8 0.00 0.00 0.00 55 995.5
20260906230004 92 171 5.2 11.3 0.00 0.00 0.00 55 995.5
20260906225004 94 181 5.2 10.4 0.00 0.00 0.00 52 995.3
20260906224004 96 196 3.5 8.7 0.00 0.00 0.00 47 995.4
20260906223504 96 95 0.9 13.0 0.00 0.00 0.00 47 995.1
20260906223004 97 256 1.7 13.0 0.00 0.00 0.00 45 995.3
20260906222004 94 224 1.7 4.3 0.00 0.00 0.00 48 995.6
20260906221503 94 143 0.9 1.7 0.00 0.00 0.00 49 995.4
20260906221004 94 141 1.7 4.3 0.00 0.00 0.00 48 995.5
20260906220003 95 274 2.6 6.1 0.00 0.00 0.00 48 995.6
20260906215504 96 266 2.6 8.7 0.00 0.00 0.00 47 995.6
20260906215004 96 85 2.6 8.7 0.00 0.00 0.00 47 995.5
20260906214504 96 232 2.6 6.1 0.00 0.00 0.00 47 995.6
20260906214004 97 283 1.7 7.0 0.00 0.00 0.00 47 995.6
20260906213004 97 248 1.7 6.1 0.00 0.00 0.00 47 996.1
20260906212004 99 210 0.9 2.6 0.00 0.00 0.00 44 996.1
20260906211504 98 131 2.6 5.2 0.00 0.00 0.00 45 995.9
20260906211004 97 265 1.7 4.3 0.00 0.00 0.00 45 996.1
20260906210504 96 165 0.9 4.3 0.00 0.00 0.00 46 996.2
20260906210004 95 169 1.7 6.1 0.00 0.00 0.00 47 996.2
20260906205504 95 219 0.9 4.3 0.00 0.00 0.00 48 996.3
20260906204503 97 218 1.7 6.1 0.00 0.00 0.00 47 996.4
20260906204004 97 104 1.7 2.6 0.00 0.00 0.00 48 996.3
20260906203503 96 188 1.7 4.3 0.00 0.00 0.00 49 996.4
20260906203004 95 110 0.9 1.7 0.00 0.00 0.00 50 996.6
20260906202504 94 137 1.7 5.2 0.00 0.00 0.00 52 996.5
20260906201003 95 151 1.7 4.3 0.00 0.00 0.00 51 996.7
20260906200504 93 171 2.6 5.2 0.00 0.00 0.00 52 996.9
20260906200004 94 168 1.7 2.6 0.00 0.00 0.00 52 996.9
20260906195503 93 176 1.7 2.6 0.00 0.00 0.00 52 996.9
20260906195003 93 74 0.9 1.7 0.00 0.00 0.00 52 996.9
20260906194503 94 110 0.9 1.7 0.00 0.00 0.00 52 997.0
20260906194004 94 156 1.7 4.3 0.00 0.00 0.00 51 997.1
20260906193503 95 170 1.7 2.6 0.00 0.00 0.00 49 997.1
20260906193004 96 175 1.7 2.6 0.00 0.00 0.00 49 997.2
20260906192504 94 48 0.9 1.7 0.00 0.00 0.00 50 997.1
20260906191503 96 245 1.7 4.3 0.00 0.00 0.00 47 997.1
20260906191004 96 241 0.9 5.2 0.00 0.00 0.00 47 997.5
20260906190504 95 123 0.9 2.6 0.00 0.00 0.00 48 997.2
20260906190004 94 158 0.9 2.6 0.00 0.00 0.00 47 997.5
20260906185503 95 153 0.9 2.6 0.00 0.00 0.00 47 997.6
20260906185004 95 69 0.9 2.6 0.00 0.00 0.00 48 997.4
20260906184504 94 91 1.7 5.2 0.00 0.00 0.00 50 997.7
20260906184004 94 211 0.9 0.9 0.00 0.00 0.00 48 997.6
20260906183504 94 157 0.9 2.6 0.00 0.00 0.00 49 997.4
20260906183004 95 101 1.7 2.6 0.00 0.00 0.00 48 997.8
20260906181504 92 246 1.7 1.7 0.00 0.00 0.00 50 998.0
20260906181004 92 83 0.0 0.9 0.00 0.00 0.00 53 998.1
20260906180503 92 91 0.0 0.9 0.00 0.00 0.00 54 998.2
20260906180004 91 63 0.9 5.2 0.00 0.00 0.00 56 998.3
20260906175503 92 253 1.7 4.3 0.00 0.00 0.00 55 998.3
20260906175004 92 110 0.9 2.6 0.00 0.00 0.00 57 998.5
20260906174503 91 255 1.7 4.3 0.00 0.00 0.00 57 998.7
20260906174004 89 110 1.7 2.6 0.00 0.00 0.00 61 998.7
20260906173503 88 138 0.9 5.2 0.00 0.00 0.00 63 998.7
20260906173004 89 143 1.7 4.3 0.00 0.00 0.00 63 998.7
20260906172503 89 144 1.7 4.3 0.00 0.00 0.00 63 998.9
20260906172003 89 264 2.6 2.6 0.00 0.00 0.00 63 999.1
20260906171003 90 93 1.7 5.2 0.00 0.00 0.00 64 999.4
20260906170503 90 177 1.7 5.2 0.00 0.00 0.00 63 999.4
20260906170003 90 134 0.9 2.6 0.00 0.00 0.00 63 999.2
20260906165503 89 133 1.7 4.3 0.00 0.00 0.00 65 999.3
20260906164504 89 182 1.7 4.3 0.00 0.00 0.00 65 999.3
20260906164003 88 234 1.7 7.0 0.00 0.00 0.00 66 999.5
20260906162004 87 74 0.9 1.7 0.00 0.00 0.00 68 999.5
20260906161504 87 227 1.7 1.7 0.00 0.00 0.00 68 999.4
20260906161004 87 51 0.9 1.7 0.00 0.00 0.00 69 999.4
20260906160004 86 118 0.0 1.7 0.00 0.00 0.00 70 999.6
20260906155503 85 75 0.0 0.9 0.00 0.00 0.00 71 999.3
20260906155003 85 83 0.9 1.7 0.00 0.00 0.00 71 999.1
20260906154504 85 104 0.9 0.9 0.00 0.00 0.00 71 999.3
20260906154003 85 92 0.9 0.9 0.00 0.00 0.00 70 999.0
20260906153503 85 140 0.9 1.7 0.00 0.00 0.00 72 999.2
20260906153004 85 130 0.9 1.7 0.00 0.00 0.00 73 999.1
20260906152504 85 173 1.7 1.7 0.00 0.00 0.00 73 998.9
20260906152004 84 116 0.0 2.6 0.00 0.00 0.00 74 998.7
20260906151004 83 157 0.9 2.6 0.00 0.00 0.00 76 998.8
20260906150504 83 163 0.9 4.3 0.00 0.00 0.00 76 998.9
20260906150004 83 165 0.9 2.6 0.00 0.00 0.00 76 998.6
20260906144503 83 128 0.9 0.9 0.00 0.00 0.00 77 998.6
20260906144003 82 96 0.9 1.7 0.00 0.00 0.00 78 998.7
20260906143504 82 150 0.9 1.7 0.00 0.00 0.00 79 998.6
20260906143003 82 80 0.9 0.9 0.00 0.00 0.00 79 998.8
20260906142503 82 131 0.9 0.9 0.00 0.00 0.00 80 998.5
20260906142004 81 131 0.9 1.7 0.00 0.00 0.00 80 998.5
20260906141504 81 125 0.9 1.7 0.00 0.00 0.00 80 998.5
20260906141003 81 139 0.9 1.7 0.00 0.00 0.00 81 998.4
20260906140504 81 161 1.7 2.6 0.00 0.00 0.00 81 998.5
20260906140004 81 135 0.9 1.7 0.00 0.00 0.00 82 998.5
20260906135504 80 134 0.9 1.7 0.00 0.00 0.00 82 998.6
20260906135004 81 135 0.0 0.9 0.00 0.00 0.00 82 998.5
20260906134504 80 117 0.9 0.9 0.00 0.00 0.00 82 998.3
20260906133503 80 113 0.9 1.7 0.00 0.00 0.00 83 998.3
20260906133004 80 150 0.9 2.6 0.00 0.00 0.00 83 998.3
20260906132504 80 136 0.9 0.9 0.00 0.00 0.00 83 998.1
20260906132003 80 109 0.9 0.9 0.00 0.00 0.00 83 998.0
20260906131504 80 126 0.0 0.0 0.00 0.00 0.00 84 997.9
20260906131004 79 146 0.0 0.9 0.00 0.00 0.00 84 998.0
20260906130504 79 145 0.9 0.9 0.00 0.00 0.00 84 997.8
20260906130004 79 144 0.0 0.0 0.00 0.00 0.00 84 997.8
20260906125504 79 144 0.0 0.9 0.00 0.00 0.00 84 998.0
20260906125004 79 144 0.9 0.9 0.00 0.00 0.00 84 997.8
20260906124504 79 144 0.0 0.9 0.00 0.00 0.00 84 997.8
20260906124004 78 141 0.9 0.9 0.00 0.00 0.00 85 997.5
20260906123003 78 127 0.0 0.0 0.00 0.00 0.00 85 997.4
20260906122504 78 127 0.0 0.0 0.00 0.00 0.00 85 997.2
20260906121503 78 127 0.0 0.0 0.00 0.00 0.00 85 997.0
20260906121003 77 115 0.0 0.0 0.00 0.00 0.00 85 996.9
20260906120503 77 115 0.0 0.0 0.00 0.00 0.00 85 997.0
20260906115504 77 115 0.0 0.0 0.00 0.00 0.00 85 996.7
20260906115004 77 115 0.0 0.0 0.00 0.00 0.00 85 996.7
20260906114003 77 135 0.0 0.0 0.00 0.00 0.00 85 996.5
20260906113503 78 135 0.0 0.0 0.00 0.00 0.00 85 996.6
20260906113003 77 135 0.0 0.0 0.00 0.00 0.00 84 996.4
20260906111502 78 135 0.0 0.0 0.00 0.00 0.00 83 996.6
20260906111003 78 135 0.0 0.9 0.00 0.00 0.00 83 996.4
20260906110503 79 139 0.0 0.9 0.00 0.00 0.00 82 996.3
20260906110002 79 144 0.0 0.9 0.00 0.00 0.00 82 996.5
20260906105503 79 139 0.0 0.9 0.00 0.00 0.00 82 996.4
20260906104502 79 240 0.9 1.7 0.00 0.00 0.00 81 996.5
20260906104003 79 207 0.9 1.7 0.00 0.00 0.00 81 996.3
20260906103502 79 163 0.9 0.9 0.00 0.00 0.00 81 996.3
20260906103002 79 200 0.9 2.6 0.00 0.00 0.00 81 996.3
20260906102503 79 243 0.9 2.6 0.00 0.00 0.00 81 996.3
20260906102002 79 283 0.9 0.9 0.00 0.00 0.00 81 996.3
20260906101503 80 142 0.9 1.7 0.00 0.00 0.00 81 996.1
20260906100502 80 160 1.7 1.7 0.00 0.00 0.00 80 996.1
20260906100003 80 148 0.9 1.7 0.00 0.00 0.00 80 996.1
20260906095503 80 139 0.9 1.7 0.00 0.00 0.00 80 996.0
20260906095002 80 150 0.9 1.7 0.00 0.00 0.00 80 996.0
20260906094503 80 135 0.9 1.7 0.00 0.00 0.00 80 996.1
20260906094003 80 150 0.9 1.7 0.00 0.00 0.00 80 996.2
20260906093503 80 140 0.9 0.9 0.00 0.00 0.00 80 996.1
20260906093003 80 128 0.0 2.6 0.00 0.00 0.00 79 996.1
20260906092502 80 202 0.9 2.6 0.00 0.00 0.00 79 996.0
20260906091502 80 130 0.9 2.6 0.00 0.00 0.00 79 996.0
20260906090003 80 183 1.7 4.3 0.00 0.00 0.00 80 996.2
20260906085502 81 153 1.7 2.6 0.00 0.00 0.00 80 996.1
20260906085003 81 257 0.9 1.7 0.00 0.00 0.00 80 996.2
20260906084503 81 146 0.9 0.9 0.00 0.00 0.00 80 996.1
20260906084003 81 149 0.0 0.9 0.00 0.00 0.00 80 996.2
20260906083503 81 148 0.9 1.7 0.00 0.00 0.00 79 996.0
20260906083002 81 125 0.9 0.9 0.00 0.00 0.00 79 996.1
20260906082503 82 148 1.7 4.3 0.00 0.00 0.00 79 996.2
20260906082003 82 193 1.7 4.3 0.00 0.00 0.00 78 996.0
20260906081502 82 159 1.7 5.2 0.00 0.00 0.00 78 996.1
20260906081003 82 156 1.7 5.2 0.00 0.00 0.00 78 996.1
20260906080002 82 196 4.3 6.1 0.00 0.00 0.00 78 996.3
20260906075503 82 164 0.9 4.3 0.00 0.00 0.00 78 996.3
20260906075002 82 256 1.7 5.2 0.00 0.00 0.00 78 996.5
20260906074502 82 226 4.3 6.1 0.00 0.00 0.00 78 996.3
20260906074003 82 195 2.6 4.3 0.00 0.00 0.00 78 996.5
20260906073502 82 168 2.6 5.2 0.00 0.00 0.00 78 996.3
20260906073002 82 188 3.5 7.0 0.00 0.00 0.00 77 996.6
20260906072503 82 188 4.3 7.0 0.00 0.00 0.00 77 996.5
20260906072002 82 199 2.6 5.2 0.00 0.00 0.00 77 996.7
20260906071502 82 159 1.7 4.3 0.00 0.00 0.00 77 996.7
20260906071003 83 167 1.7 5.2 0.00 0.00 0.00 77 996.7
20260906070003 83 205 2.6 7.0 0.00 0.00 0.00 76 996.7
20260906065502 83 273 3.5 7.0 0.00 0.00 0.00 76 996.8
20260906065003 83 160 1.7 4.3 0.00 0.00 0.00 76 997.0
20260906064503 83 209 1.7 2.6 0.00 0.00 0.00 76 997.0
20260906063003 83 184 1.7 7.0 0.00 0.00 0.00 75 997.0
20260906062502 83 164 5.2 7.8 0.00 0.00 0.00 75 996.8
20260906061503 83 169 3.5 7.0 0.00 0.00 0.00 75 996.9
20260906061002 83 171 4.3 7.0 0.00 0.00 0.00 75 997.1
20260906060503 83 204 1.7 5.2 0.00 0.00 0.00 74 997.2
20260906060002 84 195 2.6 4.3 0.00 0.00 0.00 74 997.1
20260906055503 84 223 2.6 4.3 0.00 0.00 0.00 74 997.2
20260906055003 84 164 2.6 2.6 0.00 0.00 0.00 74 997.1
20260906054502 83 215 1.7 5.2 0.00 0.00 0.00 74 997.4
20260906054002 83 174 1.7 4.3 0.00 0.00 0.00 74 997.0
20260906053503 83 165 2.6 4.3 0.00 0.00 0.00 74 997.1
20260906053002 83 149 2.6 4.3 0.00 0.00 0.00 74 997.2
20260906052503 83 140 1.7 4.3 0.00 0.00 0.00 74 997.1
20260906052002 83 162 1.7 2.6 0.00 0.00 0.00 74 997.1
20260906051503 83 152 0.9 2.6 0.00 0.00 0.00 74 997.3
20260906051003 83 137 0.9 1.7 0.00 0.00 0.00 74 997.1
20260906050002 83 149 0.9 2.6 0.00 0.00 0.00 73 997.5
20260906045503 83 105 0.9 2.6 0.00 0.00 0.00 73 997.3
20260906045003 83 172 1.7 2.6 0.00 0.00 0.00 73 997.4
20260906044502 83 139 1.7 4.3 0.00 0.00 0.00 73 997.3
20260906044003 83 121 0.9 4.3 0.00 0.00 0.00 73 997.3
20260906043003 83 137 1.7 2.6 0.00 0.00 0.00 72 997.2
20260906042502 83 164 1.7 4.3 0.00 0.00 0.00 72 997.2
20260906042003 84 139 0.9 4.3 0.00 0.00 0.00 71 997.2
20260906041503 84 179 1.7 4.3 0.00 0.00 0.00 71 997.2
20260906041002 84 174 1.7 6.1 0.00 0.00 0.00 71 997.0
20260906040503 84 186 2.6 4.3 0.00 0.00 0.00 70 997.1
20260906040002 84 106 1.7 2.6 0.00 0.00 0.00 70 997.2
20260906035503 85 85 1.7 4.3 0.00 0.00 0.00 69 997.2
20260906035003 85 137 1.7 6.1 0.00 0.00 0.00 69 997.1
20260906034503 85 148 1.7 6.1 0.00 0.00 0.00 68 997.2
20260906034003 85 184 2.6 6.1 0.00 0.00 0.00 68 997.2
20260906033003 85 149 1.7 5.2 0.00 0.00 0.00 67 997.2
20260906032502 85 154 2.6 5.2 0.00 0.00 0.00 67 997.0
20260906032003 85 148 0.9 4.3 0.00 0.00 0.00 66 997.0
20260906031502 86 70 1.7 2.6 0.00 0.00 0.00 65 996.8
20260906031003 86 152 1.7 5.2 0.00 0.00 0.00 65 996.8
20260906030502 86 153 2.6 5.2 0.00 0.00 0.00 65 996.9
20260906030003 86 26 2.6 5.2 0.00 0.00 0.00 64 996.8
20260906025002 87 93 1.7 4.3 0.00 0.00 0.00 63 996.5
20260906024503 87 34 2.6 7.8 0.00 0.00 0.00 62 996.4
20260906024002 87 62 3.5 7.8 0.00 0.00 0.00 61 996.4
20260906023003 87 115 1.7 4.3 0.00 0.00 0.00 60 996.2
20260906022503 87 87 1.7 4.3 0.00 0.00 0.00 60 996.0
20260906022003 88 125 0.9 8.7 0.00 0.00 0.00 60 995.9
20260906021503 88 129 1.7 4.3 0.00 0.00 0.00 60 995.8
20260906021003 88 88 1.7 4.3 0.00 0.00 0.00 59 995.6
20260906020003 89 96 1.7 4.3 0.00 0.00 0.00 59 995.7
20260906015503 89 89 1.7 6.1 0.00 0.00 0.00 58 995.5
20260906015004 89 184 3.5 6.1 0.00 0.00 0.00 58 995.5
20260906014504 89 174 2.6 5.2 0.00 0.00 0.00 57 995.5
20260906014003 90 122 1.7 5.2 0.00 0.00 0.00 57 995.2
20260906013503 90 130 2.6 5.2 0.00 0.00 0.00 56 995.1
20260906013003 90 105 2.6 4.3 0.00 0.00 0.00 56 995.0
20260906012003 91 109 1.7 7.0 0.00 0.00 0.00 55 994.9
20260906011503 91 122 2.6 5.2 0.00 0.00 0.00 56 995.0
20260906011003 91 168 1.7 5.2 0.00 0.00 0.00 55 995.0
20260906010503 91 170 4.3 6.1 0.00 0.00 0.00 55 995.0
20260906010003 91 107 2.6 5.2 0.00 0.00 0.00 54 995.0
20260906005003 92 117 1.7 4.3 0.00 0.00 0.00 54 994.9
20260906004502 92 67 2.6 6.1 0.00 0.00 0.00 53 995.0
20260906004003 92 67 2.6 6.1 0.00 0.00 0.00 53 995.2
20260906003503 93 184 2.6 5.2 0.00 0.00 0.00 52 994.9
20260906003003 93 152 1.7 7.8 0.00 0.00 0.00 51 994.9
20260906002002 95 174 1.7 5.2 0.00 0.00 0.00 46 994.9
20260906001503 95 130 1.7 1.7 0.00 0.00 0.00 44 995.1
20260906001003 95 156 0.9 2.6 0.00 0.00 0.00 44 994.7
20260905235503 96 126 1.7 4.3 0.00 0.00 0.00 45 994.7
20260905235003 96 109 0.9 1.7 0.00 0.00 0.00 44 994.7